Location: Coupvray
(48.8929°N, 2.7967°E)
Time: 04:40:41
(UTC+00:00)

SeaSat 1 - Pass Details

Date: 14 July 2020
Orbit: 744 x 747 km, 108.0° (Epoch: 06 August)

Event Time Altitude Azimuth Distance (km) Brightness Sun altitude
Rises 00:36:34 0° 42° (NE) 3,201 6.7 -18.9°
Reaches altitude 10° 00:39:36 10° 62° (ENE) 2,272 5.5 -18.8°
Maximum altitude 00:42:53 18° 104° (ESE) 1,793 4.4 -18.7°
Enters shadow 00:45:01 14° 134° (SE) 2,002 4.4 -18.6°
